Meridian, MS

1:03 AM CST on December 07, 2019 (GMT -0600)
Key

Weather History for KMEI - October, 2019

Change the Weather History Date:

Wednesday, October 16, 2019

  Actual Average Record
Temperature  
Mean Temperature 60 °F 64 °F  
Max Temperature 72 °F 77 °F 93 °F (1990)
Min Temperature 49 °F 51 °F 33 °F (1987)
Degree Days  
Heating Degree Days 4 4  
Month to date heating degree days 11 35  
Since 1 July heating degree days 11 42  
Cooling Degree Days 0 3  
Month to date cooling degree days 185 64  
Year to date cooling degree days 2817 1987  
Growing Degree Days 10 (Base 50)    
Moisture  
Dew Point 61 °F    
Average Humidity 83    
Maximum Humidity 93    
Minimum Humidity 57    
Precipitation  
Precipitation 0.01 in 0.12 in 2.49 in (1975)
Month to date precipitation 4.62 1.86  
Year to date precipitation 47.80 44.25  
Sea Level Pressure  
Sea Level Pressure 29.95 in    
Wind  
Wind Speed 4 mph ()    
Max Wind Speed 17 mph    
Max Gust Speed 21 mph    
Visibility 9.1 miles    
Events Rain    
T = Trace of Precipitation, MM = Missing Value Source: Averaged Metar Reports

Daily Weather History Graph

Daily Weather History Graph

Search for Another Location

Airport or City:

Astronomy

Oct. 16, 2019 Rise Set
Actual Time 6:59 AM CDT 6:21 PM CDT
Civil Twilight 6:34 AM CDT 6:46 PM CDT
Nautical Twilight 6:06 AM CDT 7:14 PM CDT
Astronomical Twilight 5:37 AM CDT 7:42 PM CDT
Moon 8:22 PM CDT (10/16) 9:23 AM CDT (10/16)
Length of Visible Light 12h 11m
Length of Day
11h 22m
Waning Gibbous, 92% of the Moon is Illuminated
Oct 16
Waning Gibbous
Oct 21
Last Quarter
Oct 27
New
Nov 4
First Quarter
Nov 12
Full

Hourly Weather History & Observations

Time (CDT) Temp. Dew Point Humidity Pressure Visibility Wind Dir Wind Speed Gust Speed Precip Events Conditions
12:18 AM 69.1 °F 66.0 °F 90% 29.87 in 10.0 mi SW 8.1 mph - N/A   Scattered Clouds
12:58 AM 69.1 °F 66.0 °F 90% 29.84 in 10.0 mi SSW 5.8 mph - N/A   Partly Cloudy
1:58 AM 69.1 °F 66.0 °F 90% 29.85 in 10.0 mi Calm Calm - N/A   Scattered Clouds
2:34 AM 68.0 °F 66.0 °F 93% 29.87 in 10.0 mi Calm Calm - N/A   Partly Cloudy
2:50 AM 68.0 °F 64.9 °F 90% 29.87 in 4.0 mi Calm Calm - N/A   Mostly Cloudy
2:58 AM 66.9 °F 64.9 °F 93% 29.87 in 2.5 mi Calm Calm - N/A   Mostly Cloudy
3:16 AM 66.9 °F 64.9 °F 93% 29.87 in 3.0 mi South 3.5 mph - N/A   Scattered Clouds
3:58 AM 66.9 °F 64.9 °F 93% 29.87 in 10.0 mi South 3.5 mph - N/A   Mostly Cloudy
4:58 AM 68.0 °F 66.0 °F 93% 29.87 in 6.0 mi Calm Calm - 0.01 in Rain Light Rain
5:50 AM 69.1 °F 66.0 °F 90% 29.88 in 10.0 mi Calm Calm - 0.00 in   Overcast
5:58 AM 69.1 °F 66.0 °F 90% 29.88 in 10.0 mi Calm Calm - 0.00 in   Overcast
6:58 AM 69.1 °F 66.9 °F 93% 29.88 in 10.0 mi Calm Calm - N/A   Overcast
7:58 AM 70.0 °F 66.9 °F 90% 29.90 in 10.0 mi SW 3.5 mph - N/A   Overcast
8:05 AM 70.0 °F 66.9 °F 90% 29.90 in 10.0 mi Calm Calm - N/A   Overcast
8:09 AM 70.0 °F 66.9 °F 90% 29.91 in 10.0 mi SW 3.5 mph - N/A   Overcast
8:17 AM 70.0 °F 66.9 °F 90% 29.91 in 10.0 mi Calm Calm - N/A   Overcast
8:58 AM 70.0 °F 66.9 °F 90% 29.94 in 9.0 mi Calm Calm - N/A   Overcast
9:05 AM 70.0 °F 66.9 °F 90% 29.95 in 8.0 mi Calm Calm - N/A   Overcast
9:25 AM 71.1 °F 68.0 °F 90% 29.96 in 8.0 mi NW 6.9 mph - N/A   Overcast
9:28 AM 71.1 °F 68.0 °F 90% 29.96 in 2.0 mi NW 5.8 mph - 0.00 in Rain Light Rain
9:58 AM 70.0 °F 66.0 °F 87% 29.97 in 10.0 mi North 10.4 mph - 0.00 in   Overcast
10:42 AM 71.1 °F 64.9 °F 81% 29.99 in 10.0 mi North 10.4 mph - N/A   Overcast
10:58 AM 71.1 °F 66.0 °F 84% 29.98 in 10.0 mi North 9.2 mph - N/A   Overcast
11:34 AM 71.1 °F 64.0 °F 78% 29.98 in 10.0 mi North 10.4 mph - N/A   Overcast
11:58 AM 70.0 °F 64.0 °F 81% 29.99 in 10.0 mi North 10.4 mph - N/A   Overcast
12:33 PM 68.0 °F 62.1 °F 81% 30.00 in 10.0 mi North 12.7 mph - N/A   Overcast
12:58 PM 66.0 °F 59.0 °F 78% 29.99 in 10.0 mi North 11.5 mph - N/A   Overcast
1:35 PM 66.0 °F 59.0 °F 78% 30.00 in 10.0 mi NNW 13.8 mph - N/A   Overcast
1:56 PM 66.2 °F 59.0 °F 78% 30.00 in 10.0 mi NNW 15.0 mph - N/A   Overcast
1:58 PM 66.0 °F 59.0 °F 78% 29.99 in 10.0 mi NNW 13.8 mph - N/A   Overcast
2:43 PM 68.0 °F 59.0 °F 73% 29.99 in 10.0 mi NW 8.1 mph - N/A   Mostly Cloudy
2:58 PM 69.1 °F 57.9 °F 68% 29.98 in 10.0 mi NW 9.2 mph - N/A   Mostly Cloudy
3:12 PM 69.1 °F 57.9 °F 68% 29.99 in 10.0 mi NNW 6.9 mph - N/A   Scattered Clouds
3:26 PM 70.0 °F 57.9 °F 65% 29.99 in 10.0 mi NNE 5.8 mph - N/A   Mostly Cloudy
3:55 PM 71.6 °F 55.4 °F 57% 29.99 in 10.0 mi North 9.2 mph - N/A   Scattered Clouds
3:58 PM 71.1 °F 55.9 °F 59% 29.98 in 10.0 mi North 9.2 mph - N/A   Partly Cloudy
4:58 PM 66.9 °F 52.0 °F 59% 29.99 in 10.0 mi North 10.4 mph - N/A   Clear
5:58 PM 63.0 °F 55.9 °F 78% 29.98 in 10.0 mi NW 6.9 mph - N/A   Clear
6:58 PM 59.0 °F 52.0 °F 78% 30.00 in 10.0 mi NNW 4.6 mph - N/A   Clear
7:58 PM 55.9 °F 51.1 °F 84% 30.03 in 10.0 mi NW 3.5 mph - N/A   Clear
8:58 PM 55.0 °F 50.0 °F 83% 30.04 in 10.0 mi Calm Calm - N/A   Clear
9:58 PM 53.1 °F 48.9 °F 86% 30.06 in 10.0 mi SSW 3.5 mph - N/A   Clear
10:58 PM 53.1 °F 48.9 °F 86% 30.06 in 10.0 mi Calm Calm - N/A   Clear
11:58 PM 50.0 °F 46.9 °F 89% 30.05 in 10.0 mi Calm Calm - N/A   Clear